Theta_e
309 310 310 310 310 310 310 311 311 311 311 311 311 311 311 311 311 311 311 311 311 311 312 311 311 310 310 310 310 310 310 311 312 313 314 314 314 313 313 313 312 312 312 312 312 312 313 313 314 314 314 314 314 315 314 316 315 318 331 331 323 323 324 319 317 314 317 320 313 310 313 314 315 313 313 314 314 314 314 314 315 315 315 315 315 315 315 315
310 310 310 310 310 310 310 311 311 311 311 311 311 311 311 311 311 311 311 311 311 311 311 311 310 310 310 310 310 310 311 311 312 313 314 315 314 314 314 312 312 312 312 313 312 312 313 313 314 314 315 314 314 315 314 315 314 320 328 326 328 329 319 314 314 310 313 316 312 312 312 313 315 313 313 315 314 314 314 315 314 315 315 315 316 315 315 315
310 310 310 310 310 310 311 311 311 311 311 311 310 311 311 311 311 311 311 310 311 310 310 310 310 310 310 310 310 310 311 311 312 313 313 313 314 314 313 312 313 313 313 313 313 313 313 313 314 315 314 314 315 315 314 315 314 314 320 326 331 323 313 311 312 312 313 313 312 312 312 312 313 313 314 314 314 313 314 315 314 315 316 316 316 315 315 315
310 310 310 310 310 310 311 311 311 311 311 310 310 310 310 311 311 310 311 310 310 310 310 310 310 310 310 310 310 311 312 312 312 313 312 312 313 313 313 313 314 314 314 314 314 313 313 313 314 314 315 315 315 315 314 314 314 313 318 327 321 311 313 314 312 313 313 312 313 312 312 313 313 313 314 313 315 315 314 315 316 316 316 316 315 315 315 315
310 310 310 310 310 310 311 311 311 310 310 309 309 309 310 311 310 310 310 310 309 310 310 310 310 310 310 310 310 311 313 314 313 313 312 312 312 313 314 314 313 313 313 314 314 313 313 314 314 315 316 315 315 316 314 313 313 314 314 316 312 309 315 315 312 314 313 313 313 312 313 314 313 313 314 314 316 317 315 316 316 316 316 316 315 315 315 315
309 309 309 310 310 310 311 310 310 309 308 308 308 308 309 309 309 309 309 309 309 310 310 310 310 310 310 310 310 311 313 314 313 312 312 312 312 313 313 313 313 313 313 314 314 314 314 314 314 315 315 314 314 315 315 312 313 317 314 310 311 312 313 313 312 313 313 313 312 312 313 313 313 313 313 313 315 316 315 316 316 316 316 315 315 315 315 315
309 309 309 310 309 309 309 308 308 307 307 307 307 307 308 308 307 307 308 308 309 310 310 309 310 310 310 310 310 311 312 313 313 312 312 312 313 313 313 313 313 313 313 313 313 315 314 315 315 314 314 313 312 312 314 313 313 319 318 311 312 312 312 313 312 312 312 313 313 313 313 313 313 314 313 313 315 316 315 316 315 316 316 315 315 315 315 316
309 309 309 309 308 307 306 306 306 306 306 306 306 307 307 307 307 307 307 308 309 310 309 309 310 310 310 310 310 311 311 312 313 312 312 312 313 313 313 313 313 313 313 312 313 315 315 315 315 314 314 313 313 312 313 314 314 317 317 312 312 312 312 313 313 313 313 313 313 313 313 313 313 313 311 313 316 315 315 316 316 316 316 316 316 316 316 315
309 309 308 308 307 306 306 306 306 306 306 306 306 307 307 307 307 307 308 309 309 309 309 309 310 310 311 310 310 311 310 312 313 313 312 312 313 313 313 313 313 313 313 313 313 314 315 314 315 315 314 312 314 313 312 315 315 314 315 313 313 313 312 313 313 313 313 313 313 314 313 312 313 313 313 316 316 316 316 315 316 316 316 316 316 316 316 315
308 308 307 306 306 306 306 306 306 306 306 306 307 307 307 307 307 308 308 309 309 309 309 309 310 310 310 310 310 311 311 312 313 313 312 312 313 313 313 313 313 314 314 314 314 315 315 314 315 315 315 314 313 313 313 315 315 313 313 313 313 314 313 313 314 313 313 313 313 314 314 312 312 312 315 316 316 316 316 316 316 316 316 316 316 316 316 316
307 307 306 306 306 306 307 307 307 307 307 307 307 307 307 307 308 308 308 308 308 309 309 310 310 310 310 311 310 311 312 313 313 314 313 313 313 313 313 313 315 316 316 315 315 316 315 315 315 314 315 315 314 313 313 313 314 313 313 314 314 314 314 313 313 313 314 314 313 314 313 312 311 313 316 315 315 316 315 316 315 315 316 315 315 316 315 315
306 306 306 307 306 307 308 308 308 308 308 308 307 308 307 307 307 308 308 308 308 309 309 310 310 310 311 310 310 311 314 315 314 314 313 313 313 313 314 314 316 316 317 316 316 317 315 315 315 315 315 314 314 314 314 314 313 313 314 317 318 318 317 313 312 312 313 314 313 313 314 315 314 314 316 314 315 315 315 316 315 315 316 315 316 315 316 315
306 306 307 307 308 308 309 309 309 309 309 309 309 309 308 309 308 308 308 308 309 309 309 310 310 310 310 310 311 311 312 313 315 315 314 314 314 314 314 315 316 317 318 317 317 317 316 315 315 315 314 314 315 313 314 312 312 316 313 315 322 324 320 312 310 312 312 314 312 312 318 324 322 315 314 315 314 314 315 315 315 316 316 316 316 315 316 315
307 307 308 309 309 310 310 310 310 309 309 309 309 309 309 309 309 309 309 309 309 309 310 310 310 310 310 310 313 312 311 311 314 316 314 314 314 314 315 315 316 317 318 317 317 316 315 316 315 316 314 315 314 313 318 316 315 319 312 318 324 319 321 316 309 311 314 313 312 313 318 323 324 317 314 315 314 314 314 315 315 315 316 316 316 315 316 316
308 308 309 310 310 310 310 310 309 309 309 308 308 308 308 308 308 309 309 309 310 310 310 310 310 310 310 310 311 312 311 310 313 316 315 314 314 314 315 315 316 316 317 318 318 316 316 316 315 315 313 314 315 316 325 322 322 322 313 323 324 315 327 323 308 309 314 313 310 313 318 320 320 316 313 314 314 313 313 315 315 315 316 316 316 316 316 316
309 309 310 310 310 310 310 309 309 309 308 308 307 307 307 307 307 308 308 308 309 309 309 309 310 310 310 310 310 311 311 310 312 314 316 315 314 315 315 315 315 316 317 317 317 316 316 316 315 314 313 314 319 327 331 324 326 326 317 322 324 318 325 322 310 307 309 311 311 313 317 320 319 314 313 313 312 313 313 315 316 315 317 316 316 316 316 316
309 309 309 310 310 310 310 309 309 308 308 307 307 307 307 307 307 307 307 307 308 308 308 310 310 309 309 310 311 311 311 311 311 312 315 315 314 315 315 315 315 316 317 317 317 317 316 316 314 314 315 315 318 327 327 320 323 326 318 319 323 320 319 319 318 310 306 311 313 313 314 317 317 313 313 314 312 312 312 314 316 316 316 316 316 316 317 317
310 309 309 309 309 309 309 309 309 308 308 308 307 307 307 307 307 307 307 307 308 308 308 310 310 311 311 310 312 313 313 312 311 311 313 315 315 315 316 315 315 316 317 316 316 316 316 314 315 317 319 318 318 321 323 323 325 326 324 323 321 318 316 320 323 313 308 313 315 315 315 315 314 312 313 314 312 311 312 314 315 316 316 317 316 316 317 317
311 310 309 309 309 309 309 308 308 308 308 308 307 307 307 307 307 307 308 307 308 309 310 310 310 313 313 310 311 313 314 313 312 312 313 315 315 316 316 315 316 316 315 317 316 315 315 315 317 319 320 320 319 318 321 324 324 325 330 332 326 321 319 321 323 314 308 313 316 316 316 315 315 313 312 313 312 311 312 313 313 314 316 316 317 317 317 318
316 313 312 310 309 309 309 309 308 308 308 308 307 307 307 308 307 307 307 307 308 309 311 312 310 311 313 312 310 312 313 313 313 313 313 315 316 316 316 314 316 316 315 319 319 312 313 318 321 322 321 321 320 317 318 320 320 323 327 330 324 321 322 322 322 313 306 313 320 317 315 315 314 313 311 311 311 309 310 311 312 314 315 316 317 318 318 318
319 318 316 314 312 310 309 308 309 308 308 308 308 307 307 307 308 308 307 307 308 307 309 310 310 310 312 312 312 311 313 313 313 314 315 316 316 316 316 315 316 318 314 313 315 313 314 320 322 319 317 317 319 318 319 318 320 325 323 321 321 321 323 320 318 314 308 313 321 318 316 316 314 313 311 309 309 309 310 310 312 314 315 316 317 317 318 318
320 319 319 318 316 314 312 310 309 308 308 308 308 308 307 307 308 308 309 309 309 308 308 308 309 309 310 311 312 312 312 314 314 315 315 315 316 316 314 315 318 320 314 311 315 318 318 321 320 313 309 312 316 316 319 319 321 327 322 318 322 322 321 318 314 313 311 312 321 321 317 315 314 313 312 310 309 311 312 313 314 315 314 315 316 317 317 318
322 321 319 319 318 317 316 314 312 310 308 308 308 308 307 308 308 308 309 309 309 309 308 309 308 308 309 309 310 311 312 314 314 314 315 314 315 315 313 316 320 320 316 316 320 321 320 322 317 307 307 316 318 315 318 319 320 324 322 320 323 321 319 318 315 314 313 312 317 319 315 313 313 313 313 311 310 311 312 313 314 314 314 315 317 316 316 317
323 322 320 320 320 319 318 317 316 314 311 308 307 308 308 308 308 308 308 308 310 310 308 309 309 308 309 309 309 311 311 313 313 313 314 314 315 315 313 315 319 320 317 317 319 319 320 317 309 305 310 320 320 315 317 318 319 321 320 321 323 322 319 318 317 316 316 314 313 315 318 319 318 318 319 315 311 311 312 313 313 314 315 316 317 317 317 318
322 322 321 320 321 321 319 319 318 317 315 311 309 307 307 308 308 309 309 309 311 311 309 309 310 309 309 309 309 311 311 312 312 312 313 314 315 314 313 312 316 319 319 317 316 318 319 311 308 312 315 319 321 319 319 320 321 322 321 320 320 321 320 317 319 318 321 323 315 313 321 327 327 325 324 322 318 315 313 312 313 316 317 316 316 317 317 318
322 321 321 322 322 322 320 320 319 319 318 315 312 308 308 309 309 308 310 313 312 311 311 310 311 311 310 310 310 310 312 313 311 312 313 314 314 313 314 313 312 316 317 316 314 316 316 309 312 321 319 317 319 319 320 318 320 322 319 318 316 316 317 317 318 318 323 326 315 312 319 323 325 322 319 322 322 318 315 312 311 314 316 316 316 317 317 318
322 321 321 322 322 322 321 320 320 320 319 318 314 310 309 309 309 307 310 315 314 311 313 312 310 311 311 310 311 310 313 313 312 313 314 314 314 313 316 315 312 313 311 312 315 315 314 312 314 320 321 319 317 320 320 315 320 324 317 316 316 315 319 319 318 318 322 322 316 315 319 320 321 319 319 323 323 320 319 317 313 312 315 316 317 317 317 318
321 321 321 321 321 322 322 321 322 321 319 319 315 311 309 309 310 309 312 317 314 311 312 312 310 311 310 311 312 310 311 312 313 315 314 314 314 313 315 315 315 317 311 312 317 313 312 318 317 316 319 319 319 324 320 314 320 321 312 314 317 318 321 321 320 320 319 320 319 318 318 320 324 323 323 323 320 319 320 320 316 312 314 315 316 318 317 318
320 321 321 321 321 321 321 322 322 321 321 319 315 311 309 309 310 311 315 318 313 310 311 312 311 311 310 311 311 310 310 311 313 315 314 314 314 313 314 312 312 315 310 311 317 313 310 315 314 315 319 319 319 317 313 315 319 313 307 312 315 316 319 320 323 323 322 323 320 318 318 318 323 328 326 321 319 321 319 319 316 311 314 316 317 318 317 318
317 319 320 320 321 321 321 321 321 321 321 320 315 310 309 310 311 312 316 317 313 311 310 310 312 311 311 312 311 310 310 312 313 314 313 314 314 312 313 311 310 316 315 313 317 314 309 309 310 313 316 314 314 310 306 312 312 308 313 320 319 320 320 321 322 321 324 326 319 318 321 317 320 328 327 319 319 324 321 321 321 314 315 318 318 319 318 318
312 315 317 319 320 320 321 320 321 321 321 320 314 309 310 312 313 315 317 315 313 313 311 311 312 311 313 313 313 311 311 312 312 314 315 314 314 313 312 312 313 321 321 317 317 314 310 313 313 312 311 309 312 312 308 307 306 311 325 327 321 324 321 321 323 321 324 325 318 316 317 316 320 325 325 319 317 320 320 323 325 319 317 317 318 318 318 318
309 311 314 317 318 319 320 320 320 320 320 320 314 309 311 313 313 317 317 315 316 316 313 313 313 313 313 313 314 313 313 314 312 314 317 316 316 315 314 315 316 319 319 317 317 314 314 317 314 310 310 311 318 320 313 310 310 317 326 324 320 323 321 321 324 323 324 321 314 313 315 316 318 319 319 318 315 315 313 315 318 316 315 317 317 317 317 318
308 308 310 314 316 318 318 319 319 319 320 320 313 309 312 314 316 317 316 317 318 315 313 315 314 313 314 314 314 313 313 315 313 313 316 315 316 315 315 317 316 317 319 316 314 315 317 317 312 313 313 312 317 320 318 317 316 318 322 322 322 322 321 323 323 319 320 318 312 310 314 317 318 319 319 317 315 314 312 311 313 313 315 317 317 316 317 317
308 308 309 311 314 316 317 318 318 318 319 317 312 311 312 316 318 318 316 316 317 314 313 315 313 313 313 314 315 313 312 314 313 314 315 315 317 317 317 317 313 317 323 317 314 316 317 317 315 315 315 314 315 316 319 320 316 317 319 319 322 324 323 324 325 323 321 321 315 310 314 322 323 323 320 314 311 312 312 313 313 312 314 315 315 316 317 317
307 308 308 309 312 315 316 318 318 318 318 314 311 311 313 315 317 319 318 315 316 317 315 314 314 314 314 315 315 313 312 313 313 314 315 315 317 317 317 316 313 316 320 316 315 315 314 318 318 312 311 313 314 313 316 318 316 316 318 318 319 322 322 318 317 319 320 322 321 316 318 323 322 321 317 312 312 313 311 311 312 313 314 314 314 317 317 318
307 308 309 309 310 313 316 318 317 318 317 312 311 312 313 314 316 316 317 315 317 318 315 315 317 316 315 315 315 312 311 313 314 315 316 315 317 316 316 316 313 313 314 313 317 317 315 318 315 310 310 312 312 312 312 314 316 316 316 318 317 317 323 321 313 310 313 316 320 320 320 320 319 319 318 317 321 320 313 311 311 312 315 314 315 318 318 318
306 307 309 309 309 311 314 316 317 317 315 311 311 312 312 313 314 315 315 314 314 315 315 317 317 316 316 315 315 314 313 314 314 315 317 315 316 318 315 315 313 312 312 311 316 319 318 319 315 311 314 311 308 310 310 308 313 318 318 318 314 313 320 324 318 317 318 319 322 321 319 318 318 320 320 318 318 319 319 317 313 312 313 314 316 318 318 318
306 307 308 309 309 310 312 314 315 315 313 312 312 313 311 312 313 313 313 312 312 314 316 317 316 316 317 316 316 315 313 314 314 315 317 315 316 317 315 316 314 311 312 310 313 317 316 317 316 311 313 312 308 312 315 310 309 315 317 315 316 319 321 320 320 321 322 321 325 325 319 316 317 320 321 318 319 322 321 319 317 314 312 313 316 318 318 317
305 306 308 308 308 309 310 312 315 313 312 312 313 313 312 311 311 312 312 312 313 315 315 316 316 315 316 316 316 315 313 314 314 314 316 315 315 315 313 315 315 311 310 310 313 317 314 315 318 311 309 312 312 314 319 316 311 311 313 311 315 321 321 320 320 320 320 321 324 326 323 319 318 322 323 319 322 327 323 323 324 317 312 314 317 318 318 317
304 307 308 308 309 309 310 312 314 312 311 313 314 313 312 311 310 311 312 312 314 315 315 316 317 316 316 315 315 316 315 314 314 314 316 315 315 315 312 313 317 314 310 309 312 316 314 313 316 313 309 313 317 316 316 317 315 313 316 315 315 317 318 319 319 317 321 325 325 325 323 318 318 321 322 320 321 322 322 327 326 316 313 317 319 317 318 318
305 307 308 309 309 310 310 312 312 311 312 313 313 313 312 311 310 311 311 312 313 314 314 318 319 316 317 316 315 316 315 314 314 314 315 314 314 316 314 312 315 315 312 311 312 315 315 315 318 317 314 315 318 316 313 315 316 315 315 316 316 316 316 318 317 315 319 321 322 323 320 317 320 320 319 322 324 319 316 319 317 313 315 318 318 317 318 318
305 306 307 309 310 310 311 312 312 311 312 313 313 313 312 311 311 311 311 311 312 312 312 315 318 316 316 317 317 317 316 316 315 314 316 315 314 316 314 311 311 313 312 314 314 313 314 318 320 319 318 318 316 311 307 311 316 315 315 316 315 315 316 318 319 318 318 317 316 318 320 319 320 320 319 319 318 313 311 309 310 313 316 318 318 317 318 318
304 305 307 308 310 310 311 312 312 311 312 312 312 313 312 311 312 311 311 311 311 312 312 313 315 315 316 316 316 317 317 317 316 315 317 317 315 313 312 311 311 312 313 315 316 314 313 317 318 316 319 320 316 310 306 308 313 315 315 315 315 315 317 320 321 318 318 319 318 318 321 319 316 317 312 308 307 308 308 309 309 313 317 318 317 316 317 318
303 304 305 307 310 311 311 312 312 312 312 311 311 312 312 312 312 311 311 311 311 312 312 313 314 314 314 315 315 316 317 317 317 316 316 317 317 313 311 311 312 313 313 315 316 314 314 318 318 315 319 320 316 315 313 311 313 316 318 317 315 315 317 318 318 316 317 321 321 320 320 318 318 318 311 308 311 310 308 309 310 313 317 317 316 316 316 317
302 302 302 304 308 309 309 309 310 311 312 311 311 311 312 312 312 311 312 311 311 312 312 313 313 312 313 314 314 315 317 317 316 316 316 318 317 312 310 311 312 312 313 314 313 313 316 319 316 315 318 318 316 318 318 317 315 315 319 319 315 315 317 316 317 317 318 319 319 318 318 316 318 319 316 315 319 317 312 311 312 313 316 317 317 317 317 317
302 302 302 302 303 304 305 305 306 308 310 311 311 311 311 312 312 311 311 311 311 311 312 313 312 312 313 314 314 315 316 316 316 317 318 319 318 313 310 311 312 312 312 313 312 315 320 320 316 315 317 317 316 316 317 319 318 316 318 318 314 314 315 316 317 317 318 318 318 317 317 317 318 319 320 319 320 324 321 313 311 314 317 317 317 317 317 318
301 302 303 303 303 302 302 303 304 306 308 310 311 311 311 311 311 311 311 312 311 311 312 313 312 313 314 314 314 315 315 315 315 317 317 318 317 315 311 310 311 312 313 313 312 316 320 319 317 318 317 316 317 316 317 320 320 318 318 317 315 314 314 316 317 317 317 318 318 317 316 317 317 317 322 323 323 327 322 311 310 315 317 317 317 317 318 318
300 301 302 303 304 304 302 302 304 305 306 308 310 310 311 311 311 311 312 312 311 311 312 313 313 313 314 314 314 314 314 315 315 315 316 316 316 316 314 312 311 311 312 313 312 316 319 317 317 319 317 316 317 316 317 320 319 317 317 317 315 314 314 315 316 316 317 317 317 317 317 317 316 315 318 320 319 319 317 314 315 316 316 316 316 317 318 318
300 300 301 302 304 304 303 303 304 305 306 306 308 309 310 311 311 311 312 312 312 311 312 313 313 313 313 314 314 314 314 315 315 315 315 315 316 317 317 316 313 310 311 314 313 314 317 317 316 318 317 317 317 316 317 318 317 316 317 316 315 314 314 315 315 315 316 317 317 317 317 317 316 315 316 316 314 314 314 315 315 314 315 316 316 317 317 318
300 299 300 301 302 302 302 303 304 305 306 306 307 307 308 309 310 310 311 311 312 312 311 312 313 313 313 313 313 314 314 314 315 315 315 315 316 316 316 318 317 312 310 313 314 312 313 317 317 316 317 317 316 316 317 316 317 317 317 317 315 314 314 314 315 315 316 316 316 316 317 317 315 315 315 314 313 313 314 314 313 314 316 316 317 317 317 317
300 299 300 301 302 301 301 301 302 303 305 306 307 307 307 307 308 309 310 310 311 312 312 312 312 312 312 313 313 313 313 313 314 314 314 315 315 315 315 316 317 316 311 310 314 313 312 316 318 316 317 317 317 317 317 316 316 315 316 317 316 315 314 313 314 315 315 316 316 316 317 317 315 316 315 314 313 312 311 312 313 315 317 317 317 317 316 316
300 300 299 300 300 301 301 302 302 302 303 304 306 306 307 307 307 308 309 309 310 311 311 311 312 312 312 313 313 312 312 312 313 313 313 314 313 313 314 313 313 316 315 312 314 315 313 314 316 316 317 318 317 317 317 316 317 317 316 316 316 315 314 314 314 314 314 315 316 316 316 315 316 318 317 317 317 313 310 312 314 315 316 317 317 316 316 316
Wind_Speed
16 15 14 12 12 11 11 11 10 10 9 9 10 10 10 11 11 10 10 10 10 10 9 9 7 5 4 3 3 2 2 2 1 1 1 1 2 2 1 1 1 1 1 1 1 1 0 1 1 1 2 4 5 6 7 6 5 3 3 3 2 3 3 6 8 7 4 2 7 11 13 9 4 9 9 5 6 7 7 11 12 12 13 12 9 7 6 7
16 15 14 13 13 12 11 11 10 9 9 9 9 10 10 10 10 10 10 10 10 10 10 9 7 5 4 3 3 3 3 2 2 2 1 2 3 3 1 1 1 1 0 1 1 1 1 0 1 2 2 4 4 4 5 4 4 3 3 3 3 5 4 5 10 9 2 1 9 12 12 10 5 10 11 4 5 6 6 9 13 14 14 14 13 12 10 9
17 16 15 14 13 12 11 10 9 9 8 9 9 9 9 10 10 10 10 10 10 10 10 9 7 5 4 4 3 3 3 3 3 2 1 2 4 4 3 3 3 2 1 0 1 1 1 1 2 2 4 5 5 4 4 4 2 2 4 2 4 7 3 5 11 11 3 1 10 12 10 9 5 11 11 5 4 4 8 11 13 16 17 15 15 14 13 12
18 17 15 14 13 12 11 10 9 9 9 9 9 9 9 10 10 10 10 10 10 10 10 8 6 5 4 4 3 3 2 2 3 1 0 3 6 7 6 5 5 4 3 2 1 1 2 3 3 4 6 5 4 4 3 5 1 1 4 3 4 5 2 4 10 9 5 2 8 11 8 6 6 11 11 7 3 4 12 17 16 17 16 13 14 14 14 14
18 17 15 14 13 12 11 10 10 9 9 9 9 9 9 10 9 10 10 10 10 10 9 7 6 5 4 4 3 4 2 1 3 2 3 6 9 9 8 7 7 6 5 4 2 3 3 4 5 5 5 4 4 4 3 5 4 3 1 2 3 5 2 2 6 6 8 6 8 10 8 6 8 9 12 11 6 7 12 14 14 15 15 13 13 13 14 15
16 14 13 12 12 12 11 11 10 10 10 10 9 10 10 10 10 10 10 10 10 10 9 7 6 5 4 4 3 4 3 2 4 4 6 9 10 10 9 7 6 5 5 6 4 3 4 5 6 5 4 3 3 3 3 3 3 2 1 1 4 4 3 2 2 4 8 8 10 11 9 8 8 7 10 15 16 16 13 9 9 10 13 15 15 14 14 15
13 12 11 11 11 10 10 10 10 10 9 9 9 10 9 9 9 10 10 10 10 9 8 6 5 5 4 3 3 4 2 3 5 6 7 10 10 10 8 6 4 2 3 5 3 4 5 5 7 7 6 4 2 2 4 4 2 3 1 2 4 1 2 2 1 5 7 6 9 10 9 7 8 6 6 16 24 22 17 14 12 10 10 12 14 16 16 15
13 13 12 12 11 10 10 10 9 9 9 9 9 9 9 9 9 9 9 9 10 9 7 6 6 5 4 3 2 3 2 3 5 6 8 9 9 9 7 4 2 2 2 3 3 4 5 5 8 8 5 3 3 2 2 4 5 4 2 3 3 1 1 2 3 5 4 4 7 8 7 5 6 5 7 19 24 19 19 19 18 17 15 14 15 16 17 17
14 13 13 13 12 11 11 10 10 9 9 9 9 9 9 9 9 9 9 10 9 8 7 6 5 4 3 2 2 2 2 3 5 7 8 8 8 7 6 4 3 4 3 2 2 3 4 6 7 5 4 5 5 2 3 3 1 2 4 4 4 3 2 3 3 4 3 4 7 6 3 2 4 4 10 22 24 20 21 20 20 20 20 19 19 18 18 19
14 14 13 13 12 12 11 11 10 10 9 9 9 9 9 9 9 9 9 9 9 8 7 6 5 4 3 2 1 2 2 4 6 7 7 8 7 5 5 3 3 3 3 1 2 3 4 5 6 6 7 7 6 3 4 3 3 4 5 6 5 3 2 3 4 4 3 3 4 5 2 2 2 0 8 15 13 15 18 19 21 21 21 22 21 21 20 20
14 13 13 12 12 11 10 10 10 9 9 9 9 9 9 9 9 9 9 9 8 8 7 6 5 4 3 2 2 3 2 3 7 8 7 8 7 4 3 2 2 1 1 2 4 4 5 5 7 7 5 5 5 4 4 5 5 4 5 5 4 5 1 1 2 3 3 2 2 3 1 3 2 2 12 14 10 11 13 15 17 18 20 20 21 21 21 21
14 13 12 11 11 10 9 9 9 8 8 8 9 9 9 9 9 9 8 8 8 8 7 6 5 4 3 3 4 3 1 2 6 9 8 7 7 5 2 1 1 1 2 3 4 5 5 5 6 4 4 8 6 4 5 5 4 4 5 3 4 7 3 2 1 3 3 2 2 3 2 5 3 10 19 15 12 14 14 16 16 17 18 19 20 21 22 22
14 13 12 11 10 9 9 8 7 7 7 7 7 7 8 8 8 8 8 7 7 7 6 6 5 5 4 3 3 5 5 4 5 10 10 8 7 5 3 2 1 2 3 3 5 5 5 4 3 5 8 8 4 4 6 4 3 3 4 2 3 6 4 3 2 1 3 3 4 5 2 6 7 18 22 15 15 15 16 18 17 18 19 19 20 21 22 22
13 13 12 11 10 9 8 7 7 6 6 6 6 6 6 6 7 7 7 7 7 6 6 5 5 5 4 3 3 5 6 6 7 10 11 10 8 6 4 3 2 2 3 4 6 6 5 5 5 7 8 7 7 8 5 4 4 1 2 2 2 2 3 4 2 2 3 4 5 5 3 6 8 14 14 13 17 16 18 20 18 18 19 19 20 20 21 21
12 12 12 11 10 9 8 7 7 6 6 6 5 5 4 5 5 6 6 6 7 6 6 6 5 4 3 3 5 6 7 8 9 11 12 11 9 7 5 4 3 3 3 4 6 6 6 6 6 7 8 8 9 6 3 4 4 3 1 2 3 1 4 6 1 3 2 2 5 5 3 6 9 12 8 9 13 14 17 20 19 20 20 20 20 20 21 21
13 12 12 11 11 10 9 8 7 7 6 5 5 5 4 4 4 4 4 5 5 5 5 5 5 5 3 3 5 6 8 11 11 12 12 12 11 8 6 5 4 3 3 4 5 6 5 5 6 7 7 6 6 4 4 3 4 4 1 2 1 1 3 5 1 1 1 1 3 2 2 4 5 6 3 4 6 9 13 17 17 18 19 19 19 20 21 21
13 13 13 12 12 11 10 9 8 7 7 6 5 5 4 4 3 3 3 3 3 4 4 4 4 5 3 4 6 6 9 11 11 12 12 12 12 9 7 6 5 5 4 4 4 4 3 4 6 5 3 3 3 4 3 2 3 3 2 1 3 2 2 3 2 1 2 2 2 2 3 7 8 9 10 8 8 9 12 18 19 19 20 20 21 22 23 23
12 13 13 13 13 12 11 10 9 8 7 6 5 4 4 3 3 2 2 3 3 3 3 5 5 3 4 7 6 5 7 9 9 11 11 12 12 11 9 6 5 6 5 4 3 3 3 3 4 2 3 3 2 5 3 4 3 3 2 1 2 2 2 3 3 1 2 2 2 3 5 11 12 14 22 22 16 15 19 24 25 26 27 27 26 27 27 28
10 11 12 13 12 12 12 10 10 9 8 7 6 5 4 3 2 2 3 4 5 4 2 7 9 4 1 6 8 6 4 6 9 10 12 13 13 12 9 6 6 6 6 4 2 3 3 4 4 2 1 2 5 6 6 7 6 6 5 4 3 2 3 5 5 4 0 0 4 6 8 12 12 12 19 23 17 16 22 26 28 30 30 30 31 31 31 31
7 8 9 10 10 11 11 10 10 10 9 8 7 6 4 3 2 1 5 7 8 7 2 6 11 7 2 3 6 8 4 5 8 11 13 14 14 12 9 7 6 4 3 3 2 2 4 3 2 5 6 7 8 6 6 5 6 7 5 4 3 3 4 4 3 5 0 2 6 6 7 11 14 12 16 21 17 15 21 25 30 32 33 34 34 34 34 34
3 4 5 6 7 8 10 10 9 10 10 9 9 7 5 6 3 0 4 6 8 11 8 6 8 9 6 2 3 5 5 6 7 10 13 14 13 11 8 7 5 3 0 3 4 2 4 3 6 7 7 7 6 6 8 6 6 5 5 3 0 3 6 5 2 4 1 2 5 3 5 12 14 13 16 17 12 15 24 26 30 34 34 35 36 37 37 36
4 4 2 3 5 6 8 8 7 9 10 10 10 8 6 7 6 3 2 2 5 9 11 12 12 13 13 11 8 6 6 5 6 11 13 14 15 10 8 6 5 3 1 3 5 3 2 4 7 5 8 7 5 6 7 6 5 4 3 2 2 3 4 5 2 4 1 2 4 4 5 12 14 13 17 18 15 21 29 30 33 35 34 36 38 39 39 38
6 6 4 3 4 6 7 6 5 6 8 10 10 10 8 6 6 6 3 2 5 8 11 14 15 17 17 16 14 11 10 7 6 12 14 16 16 11 10 8 4 4 3 3 6 3 2 6 6 7 12 9 6 4 7 6 4 2 4 4 2 3 1 3 3 3 1 1 3 4 5 9 11 11 15 19 19 24 30 31 35 36 36 40 42 40 40 40
9 7 6 4 4 8 7 5 4 4 6 8 9 10 10 7 6 5 3 1 4 6 10 13 14 17 19 17 15 14 13 11 8 11 16 18 17 11 9 8 5 4 4 6 7 6 5 5 2 6 7 7 7 4 6 6 1 2 4 5 4 4 4 4 3 3 2 2 1 2 6 7 6 8 10 10 10 16 22 23 27 31 33 36 37 37 37 36
14 12 8 5 5 8 9 7 4 2 3 4 6 10 10 8 6 4 2 2 4 4 6 11 12 15 18 17 15 13 11 12 13 13 16 20 19 11 6 7 5 4 5 5 7 4 7 5 6 7 4 6 8 4 5 7 3 4 4 8 9 7 5 3 3 5 3 4 2 0 4 6 4 6 9 6 6 11 14 14 21 29 30 30 32 34 34 33
17 15 11 8 8 10 10 8 5 3 1 2 6 9 10 8 7 5 4 4 4 4 3 7 8 9 14 14 16 13 5 8 15 16 16 20 20 11 6 5 3 3 6 6 4 3 3 3 5 6 5 6 6 2 6 7 5 2 4 7 8 5 5 3 1 2 1 3 3 2 2 6 6 8 11 6 8 12 11 12 20 30 33 31 32 34 32 30
19 17 14 13 13 13 10 7 6 4 0 2 5 8 10 10 9 7 4 4 4 4 6 7 8 8 10 12 19 15 2 4 10 14 19 21 19 12 7 4 3 2 6 6 1 2 4 3 3 5 6 6 5 3 6 8 7 2 3 4 6 7 6 5 5 3 3 3 3 2 3 4 6 8 9 4 7 11 11 12 16 25 32 32 31 30 28 26
17 18 17 17 16 14 12 10 9 6 3 2 3 8 12 13 11 7 5 2 2 5 5 6 8 10 11 16 22 13 4 8 7 10 21 22 18 11 5 8 7 5 7 7 4 3 3 6 6 7 5 4 5 4 8 11 6 4 3 6 6 6 5 5 5 3 1 3 4 2 4 3 6 7 5 2 5 10 12 13 13 19 26 25 22 20 17 16
15 16 18 19 18 17 16 15 13 10 7 3 3 10 15 16 11 6 5 1 2 4 3 6 8 8 11 16 16 7 6 5 2 9 18 17 16 7 2 9 9 7 5 4 4 3 1 3 6 7 5 5 4 1 5 8 4 4 6 7 6 5 5 5 4 3 2 3 4 6 6 3 6 6 3 1 3 8 12 11 10 17 20 16 13 11 8 7
14 15 16 16 18 20 20 18 16 13 11 6 5 14 20 16 8 5 2 3 2 2 3 6 6 7 13 12 4 1 3 2 4 12 12 9 11 6 5 7 6 6 1 3 0 3 1 1 2 4 4 5 6 5 3 4 7 10 7 6 7 5 4 3 2 4 3 4 4 8 10 5 4 6 4 5 5 6 7 7 9 13 15 12 9 7 5 4
12 13 15 16 17 20 20 20 18 17 15 9 9 21 22 9 3 4 5 1 1 2 4 4 3 7 12 8 2 2 2 2 5 11 7 4 6 4 6 6 3 4 2 5 2 3 2 1 1 3 5 8 9 6 6 6 8 8 4 4 4 3 3 4 4 3 2 5 3 5 5 3 5 7 4 6 7 5 6 6 8 9 14 16 12 7 7 7
13 13 14 16 18 17 19 20 17 17 17 12 15 22 15 4 1 5 5 3 1 3 4 3 2 6 8 5 3 6 3 2 5 7 4 4 5 5 4 5 5 3 2 6 3 3 1 4 2 1 5 8 7 5 5 4 2 4 4 6 4 2 3 3 3 0 3 6 3 2 1 1 7 9 9 12 13 11 10 12 14 14 20 24 18 12 12 13
13 14 14 15 16 16 17 16 14 16 17 17 20 14 4 2 7 9 8 4 1 2 2 2 2 4 8 6 3 5 3 2 6 4 2 4 4 5 4 4 6 3 2 5 2 0 3 5 1 3 3 8 9 6 3 2 2 5 5 6 4 2 1 3 3 1 4 5 2 3 2 2 5 7 11 17 19 18 17 20 25 24 27 31 27 23 22 22
14 14 15 15 15 14 14 14 14 15 17 19 20 10 2 4 5 6 9 5 0 1 3 3 5 4 5 4 3 4 3 2 5 4 2 4 4 5 5 6 6 2 3 4 3 5 5 6 5 6 4 11 12 7 7 6 5 5 4 5 5 5 5 5 3 3 5 4 2 2 2 4 4 4 8 14 18 22 22 24 27 29 33 35 33 32 30 27
14 14 15 17 16 14 12 13 14 16 18 22 16 5 6 7 2 3 7 4 1 2 2 3 6 5 3 2 3 3 3 2 4 4 3 5 5 6 6 7 9 5 4 4 2 4 4 7 6 2 2 13 12 5 7 8 3 3 2 4 4 5 5 2 3 5 3 3 3 2 4 5 5 6 9 10 13 17 19 21 22 27 31 30 31 31 27 23
14 15 16 16 18 18 14 14 15 18 21 22 10 2 8 6 3 4 4 2 3 4 5 3 4 4 4 2 2 3 1 1 4 3 3 3 3 5 6 6 11 11 9 7 3 2 3 5 5 3 1 6 5 3 5 5 3 2 3 4 4 3 6 4 2 1 3 2 4 2 5 6 3 7 10 8 9 10 11 14 17 23 23 20 24 25 22 20
13 14 16 17 18 18 17 16 16 20 24 18 5 5 5 3 3 4 2 3 4 6 7 3 2 4 5 3 3 5 2 1 3 3 3 2 2 6 7 5 8 14 15 10 3 3 5 3 5 2 1 3 1 3 3 2 4 5 4 6 3 2 4 4 2 2 2 3 5 2 6 6 3 5 6 4 8 11 10 11 15 18 18 19 25 25 21 18
13 13 16 19 18 16 19 17 16 22 23 12 4 5 3 3 5 4 2 3 4 5 5 4 4 4 5 5 4 5 4 3 4 5 4 3 4 7 9 5 7 17 21 12 2 2 4 2 5 1 2 3 2 3 2 4 3 5 4 4 4 2 2 2 3 3 2 3 4 4 5 5 5 6 4 4 9 12 13 12 10 12 18 24 28 25 19 11
12 10 11 16 17 17 19 18 20 24 16 4 5 5 4 6 6 6 7 4 2 4 4 3 3 2 3 6 3 4 6 6 7 6 4 4 5 6 11 9 7 13 21 16 6 2 3 3 4 2 1 1 3 2 5 2 2 3 2 2 2 2 4 3 3 4 4 3 3 4 5 5 7 7 7 10 12 12 12 9 7 13 21 22 20 16 11 5
8 6 6 7 11 15 20 20 23 21 8 3 7 4 3 5 5 11 14 6 1 2 3 2 3 3 3 4 3 3 6 6 7 6 4 5 5 4 8 10 4 3 12 15 8 1 3 3 4 2 3 1 3 5 8 9 6 4 3 4 3 1 2 1 1 2 4 3 2 2 5 9 7 5 9 12 11 11 10 8 9 14 18 15 11 10 7 4
8 5 4 6 9 15 24 21 15 10 3 4 7 4 3 5 4 10 16 11 3 0 1 2 4 3 2 3 2 3 4 4 5 5 3 5 6 4 7 12 9 7 7 8 7 5 3 3 4 2 1 4 5 4 5 9 9 8 8 8 9 6 4 3 3 1 2 3 4 3 5 11 6 5 8 10 8 9 11 12 11 12 13 11 10 10 8 5
9 5 3 8 11 19 25 15 6 6 3 6 10 7 5 6 5 9 12 13 9 4 1 2 3 4 3 3 4 3 4 4 4 5 3 5 8 6 5 10 15 16 11 4 5 7 4 3 3 3 4 6 4 2 1 4 4 4 4 5 6 6 6 6 5 4 2 1 2 3 3 11 5 4 7 7 6 7 10 12 12 14 13 11 11 11 9 8
10 8 6 9 14 24 22 7 4 7 4 10 14 8 5 5 5 8 10 11 9 6 5 3 3 6 6 4 5 4 4 5 4 6 5 5 8 9 6 8 13 14 9 1 2 4 4 2 3 4 3 2 3 3 2 1 2 3 4 2 3 4 5 4 4 4 3 3 2 3 4 11 5 1 4 6 6 8 10 14 17 18 15 12 13 12 9 9
8 10 9 9 17 27 20 5 5 8 6 10 9 5 7 8 7 9 8 9 9 5 4 3 3 7 7 4 5 6 5 5 4 7 8 5 5 8 11 15 14 10 7 4 4 9 7 3 5 4 3 3 3 2 1 1 1 3 4 3 5 6 5 4 1 2 1 6 8 5 7 11 4 3 3 4 5 8 10 12 15 16 15 15 13 10 8 8
4 7 12 15 20 21 12 4 3 6 9 11 7 7 10 7 9 16 13 11 12 8 5 6 7 8 5 4 6 6 6 7 6 6 7 6 4 3 11 20 18 13 12 8 6 11 8 3 6 7 6 7 6 5 4 3 2 2 3 6 8 9 10 5 3 3 5 10 9 6 10 12 4 4 4 5 3 7 10 10 12 15 16 15 13 10 9 7
5 3 6 13 21 20 13 10 5 2 6 10 7 7 10 7 7 16 16 11 13 13 8 7 9 8 5 7 8 8 9 11 9 6 5 6 4 1 8 19 21 20 20 12 9 9 3 2 7 10 10 12 11 9 4 6 6 6 8 10 9 10 12 9 5 6 10 11 7 8 15 17 12 4 5 7 5 5 9 9 12 16 18 16 15 12 10 9
6 3 4 6 10 13 13 12 9 4 3 6 5 4 11 11 5 8 14 12 14 17 10 5 7 8 7 10 10 9 11 11 9 9 7 7 5 2 4 12 18 21 18 11 11 9 3 3 8 9 12 13 14 13 6 7 8 12 13 13 12 12 12 12 12 14 13 10 11 15 16 17 20 13 8 9 8 7 8 10 14 18 19 18 17 13 12 14
9 4 8 9 4 4 8 10 11 10 8 5 3 3 8 12 9 8 10 10 13 17 10 5 8 12 12 13 10 8 9 8 8 11 10 7 4 1 0 4 9 14 11 8 10 8 3 6 9 9 13 14 16 14 7 7 7 8 11 14 15 15 15 16 19 21 18 12 13 18 15 16 22 19 12 12 11 10 12 15 18 20 20 18 17 15 15 18
13 5 7 11 5 1 3 5 7 9 10 7 4 4 5 9 12 10 7 5 7 12 12 9 11 14 15 13 10 8 9 8 9 10 9 9 6 3 3 4 5 8 8 7 7 4 4 8 11 10 12 14 17 16 9 9 7 5 8 11 13 16 19 22 23 24 22 17 16 21 20 19 22 18 11 14 18 19 20 19 18 18 19 19 20 22 23 25
16 11 7 6 4 4 2 4 5 4 5 6 5 5 5 7 10 8 7 8 6 7 13 15 15 14 14 13 13 13 12 11 12 11 9 7 6 5 5 4 3 3 4 4 2 0 3 6 7 7 7 11 17 19 13 9 7 9 9 7 10 15 19 23 22 19 17 17 20 22 20 21 21 12 9 16 21 21 19 19 19 21 23 26 29 33 33 32
20 16 12 6 2 6 6 2 3 2 2 4 6 6 6 8 10 8 6 12 13 8 10 15 17 13 11 14 16 16 18 18 16 16 13 11 11 11 8 7 8 5 2 3 3 3 4 3 1 4 5 10 15 18 15 9 6 9 10 10 15 19 18 17 15 14 15 17 19 18 15 20 16 6 8 15 16 14 16 19 24 29 32 34 37 39 39 36
24 16 15 10 4 4 4 3 4 5 5 6 7 7 7 7 7 5 4 9 16 18 15 16 16 12 9 13 18 23 29 29 26 26 24 21 21 19 16 16 16 10 6 5 4 4 6 4 3 4 5 10 15 15 10 7 6 9 13 20 25 22 15 10 11 16 20 17 14 13 15 21 15 6 8 13 9 10 16 23 28 33 36 39 41 41 39 36
Wind_Direction
195 197 199 201 204 206 206 209 209 210 213 214 215 211 207 204 199 195 192 190 189 192 195 194 194 195 196 200 212 209 189 172 181 264 259 211 192 185 223 278 230 238 229 238 257 242 242 25 43 80 102 107 101 106 108 108 117 117 95 98 157 178 195 188 180 184 164 199 196 181 181 175 177 185 182 193 216 232 236 227 223 223 225 231 236 237 247 231
197 199 200 202 205 207 209 212 213 216 219 219 219 214 211 206 202 197 193 192 192 193 195 193 194 199 200 198 208 205 186 185 209 249 254 212 197 199 209 150 168 194 242 283 263 230 214 249 60 81 103 105 88 102 111 90 93 90 99 117 201 196 203 193 179 179 151 162 181 176 183 186 190 181 179 195 223 224 239 238 232 235 236 235 240 243 249 243
200 202 203 203 205 208 211 214 217 220 221 220 219 216 212 207 203 200 196 194 193 195 194 193 196 201 204 200 204 195 186 200 209 259 281 210 195 187 164 137 122 108 99 60 138 161 193 156 91 93 104 99 81 104 103 60 78 75 104 136 233 207 209 197 183 181 163 120 169 172 183 190 195 181 180 203 228 226 232 234 231 237 243 241 242 243 246 243
202 203 203 204 206 208 212 214 216 219 218 216 214 213 211 208 204 201 199 196 196 196 192 193 198 203 206 200 193 182 185 196 191 229 337 160 163 157 139 131 116 99 86 74 101 85 116 125 114 111 103 96 71 94 70 33 77 95 113 165 223 184 158 185 187 193 193 173 172 174 174 188 193 182 187 191 193 250 239 236 237 246 253 252 251 251 249 244
205 206 205 203 204 206 210 212 212 213 212 211 208 208 207 205 204 202 201 199 198 194 191 194 200 207 208 199 188 175 155 112 172 155 125 143 143 141 135 133 121 103 83 69 80 94 116 128 125 113 95 82 47 73 41 33 92 88 59 219 161 139 105 163 185 204 202 186 173 173 170 189 186 185 200 193 194 238 242 247 250 257 261 256 257 257 254 248
210 212 209 205 205 208 210 209 209 208 207 205 203 203 203 203 202 201 201 201 198 193 192 196 201 209 207 199 189 179 149 92 168 152 137 148 144 143 142 138 128 107 76 61 74 102 112 126 125 110 88 68 39 70 58 35 113 102 350 218 147 120 70 123 184 197 190 185 177 177 184 189 178 193 213 211 225 237 245 258 256 263 261 252 252 254 257 254
210 211 210 208 208 211 211 208 206 203 200 199 199 199 198 199 198 198 200 197 194 192 194 200 206 211 209 201 184 185 158 105 160 162 152 156 154 157 156 154 152 116 54 44 60 112 108 115 126 113 91 75 87 96 56 48 90 109 105 187 166 113 36 100 148 163 171 192 189 180 186 191 189 204 227 230 238 243 248 256 254 257 257 251 249 251 257 257
204 204 205 205 205 205 204 203 202 197 193 192 192 193 191 192 193 193 194 191 189 191 196 202 207 211 209 204 192 191 161 129 164 169 162 165 168 173 177 187 210 291 329 8 45 121 110 114 130 122 95 85 133 136 61 71 55 68 134 193 163 106 22 116 126 147 146 178 181 175 185 202 215 226 253 248 249 250 250 255 256 255 253 251 250 254 258 256
199 199 201 201 198 196 196 195 192 189 186 187 185 185 185 183 185 185 186 187 188 192 199 202 208 216 215 212 204 181 166 167 180 175 169 171 177 186 198 219 251 286 303 334 49 129 125 125 136 138 137 132 124 93 66 98 34 68 135 153 133 83 78 133 148 148 145 164 172 184 198 219 235 262 266 257 258 257 253 254 255 256 256 255 255 257 258 257
197 198 199 199 195 194 195 191 189 185 181 183 182 182 182 181 181 181 183 186 189 196 200 203 208 215 225 224 194 165 184 192 184 182 178 176 181 191 207 240 273 293 309 335 102 124 130 129 136 134 132 131 114 74 45 87 137 125 120 121 99 62 79 142 168 162 170 173 182 205 226 257 213 166 259 256 259 255 252 252 252 254 257 259 260 259 257 256
194 196 197 197 196 195 195 192 189 187 183 182 181 181 182 180 180 181 184 185 189 196 199 203 208 216 231 226 188 158 150 183 186 184 181 184 187 189 207 247 288 317 20 122 120 119 122 123 138 139 128 132 116 75 65 94 116 109 120 131 46 19 53 155 171 177 183 175 219 212 266 283 147 173 247 250 255 255 253 253 253 254 255 257 259 258 257 255
189 192 195 196 198 198 198 196 192 190 189 185 185 186 183 182 183 184 187 186 190 196 199 204 208 217 227 241 233 208 171 164 187 191 188 188 189 192 216 241 283 46 73 113 125 120 122 127 142 146 131 144 136 76 96 102 100 81 91 151 335 4 10 323 308 207 190 173 187 142 297 278 204 228 245 250 254 256 257 255 256 256 257 257 256 256 255 255
185 188 192 196 200 202 203 203 198 196 195 192 193 192 190 189 188 190 193 192 196 200 204 209 213 222 231 248 248 226 227 229 204 197 194 192 189 192 208 194 150 90 88 105 122 121 126 134 138 136 131 137 136 117 124 91 86 83 54 83 345 7 346 322 358 229 182 178 167 137 263 269 241 243 246 253 256 255 258 257 259 260 261 260 257 257 255 254
185 188 192 197 202 205 207 207 204 202 200 199 197 196 198 197 196 199 201 202 207 212 217 219 220 227 232 235 235 225 221 219 211 203 197 197 195 194 198 184 154 114 103 103 117 121 119 116 119 127 124 122 126 125 111 38 53 72 14 32 34 26 276 304 358 154 163 194 178 145 251 264 266 262 254 258 257 255 258 258 260 261 262 263 260 260 259 255
190 193 196 200 203 205 207 207 204 202 201 199 195 193 193 194 199 200 202 208 211 218 224 224 226 222 229 236 234 232 222 215 210 203 200 200 200 200 196 183 171 153 135 121 120 119 115 118 120 111 105 117 126 112 36 7 26 34 24 318 357 152 266 310 347 149 147 209 177 151 251 268 272 273 274 271 258 249 255 260 261 262 263 264 263 263 263 260
195 199 203 206 207 207 208 207 204 202 200 199 195 189 185 186 191 191 196 202 203 215 216 219 219 203 215 231 222 226 221 218 213 205 204 202 202 203 197 191 181 172 159 138 123 124 126 121 107 97 104 122 120 88 45 18 351 3 65 231 269 167 281 318 356 151 80 121 189 188 246 272 281 278 301 327 276 252 259 267 267 266 268 267 267 267 267 267
197 200 206 209 210 211 210 209 209 207 203 201 197 191 187 183 183 182 183 182 186 197 195 201 202 199 228 228 215 226 219 215 213 209 207 203 203 202 201 197 182 187 182 159 147 138 134 124 116 102 84 86 89 94 73 344 294 318 21 203 235 203 233 297 319 324 40 76 229 248 243 252 268 278 276 289 301 283 271 274 275 274 274 272 271 270 269 269
201 202 205 209 212 212 210 211 210 211 209 205 204 199 192 187 185 179 167 172 162 147 172 191 169 169 239 222 205 214 214 212 212 209 207 203 202 201 203 199 184 191 179 164 170 143 123 109 111 91 31 33 75 108 138 221 205 197 171 156 254 242 226 261 277 283 30 41 259 267 268 261 266 275 272 273 280 278 274 275 276 275 275 273 271 268 267 267
206 205 206 208 212 213 211 212 211 213 212 209 208 201 196 185 181 196 190 180 164 138 154 195 178 147 190 211 207 209 204 201 201 202 202 200 198 198 198 189 183 177 157 159 164 116 117 88 86 122 182 202 195 162 174 194 158 152 166 144 158 202 251 242 247 272 230 102 263 247 251 265 270 273 273 275 277 271 272 274 272 272 272 271 270 268 267 266
203 205 207 208 212 215 213 211 214 217 213 213 210 199 188 158 122 236 210 203 200 197 202 188 188 190 115 114 193 206 205 195 196 196 196 196 194 193 185 170 166 151 135 156 170 96 100 108 181 210 205 199 200 170 144 147 119 114 119 104 144 193 269 253 252 299 298 187 260 245 250 270 271 269 269 273 277 270 266 268 268 269 269 269 269 270 269 268
195 207 209 211 212 216 217 212 214 218 217 217 211 198 184 172 150 55 196 209 224 221 230 217 201 215 227 224 194 199 201 195 197 197 195 193 186 184 182 164 138 137 184 119 121 71 89 155 231 225 195 184 176 138 117 109 88 91 116 105 204 211 255 251 234 310 346 181 269 292 285 273 268 271 272 268 263 258 258 259 264 267 268 269 269 269 270 269
224 229 214 244 237 222 217 210 210 217 219 219 212 201 195 200 209 223 209 239 248 232 233 232 227 231 237 241 239 224 202 193 202 200 194 188 184 186 181 156 128 159 190 99 104 40 61 224 248 193 142 112 91 111 112 107 91 81 115 119 273 245 269 283 307 331 16 179 271 321 298 271 271 276 274 265 250 254 258 257 262 265 267 268 268 269 271 272
227 235 222 249 274 255 229 203 201 216 219 219 214 205 206 213 217 231 252 291 272 253 240 237 237 237 236 239 242 230 208 203 207 201 197 190 185 187 173 149 124 140 151 170 160 133 167 250 258 170 140 104 71 90 100 100 97 99 134 140 242 254 283 283 295 326 351 191 269 312 300 275 273 276 273 267 255 259 263 260 262 263 262 265 267 269 271 273
206 220 232 234 274 276 257 222 203 214 222 222 217 210 212 214 214 227 231 331 296 263 242 240 239 239 237 236 237 228 216 218 218 203 201 193 179 176 177 155 120 133 183 191 164 168 220 242 192 126 126 109 103 116 120 129 202 256 182 170 206 226 213 234 287 324 326 343 339 307 306 288 275 271 270 279 273 265 265 263 263 263 262 265 267 268 269 271
207 211 226 227 253 270 267 262 248 235 234 227 218 211 208 204 200 210 171 54 314 273 248 238 235 240 235 230 226 215 212 225 225 213 204 197 183 165 159 155 141 177 200 162 138 200 250 216 144 108 78 98 113 146 176 160 180 285 233 203 208 208 203 223 352 5 355 336 326 357 289 282 308 285 260 284 303 276 272 269 267 269 269 267 267 269 270 272
219 217 211 207 231 248 255 263 264 273 281 219 220 206 199 188 171 174 140 56 310 251 208 208 213 226 221 215 203 190 212 240 222 213 201 197 194 174 142 144 136 190 180 145 141 221 236 179 136 123 123 118 113 176 221 170 136 299 251 209 204 175 156 174 95 40 293 274 285 86 213 270 311 291 267 276 284 278 284 279 268 268 269 266 267 269 272 274
222 218 209 205 219 233 240 249 259 271 144 219 226 194 184 172 153 154 125 32 293 202 158 178 183 191 198 191 181 177 211 203 189 201 194 190 195 187 175 164 111 175 164 133 198 247 168 150 108 118 120 119 135 203 223 162 132 246 248 158 158 154 168 181 151 178 234 272 290 123 152 272 291 274 271 285 285 286 288 278 268 265 266 267 268 271 275 279
223 216 214 215 219 228 236 242 252 255 232 252 215 179 173 159 152 142 106 21 256 149 145 173 169 181 183 175 177 174 137 141 145 190 187 184 190 185 191 193 167 176 171 149 212 262 154 176 189 160 132 152 183 218 194 155 134 250 208 122 135 149 155 139 127 174 306 355 297 193 144 264 273 272 287 290 280 286 279 273 270 268 271 275 275 277 282 282
226 220 221 223 225 228 232 235 239 239 237 240 161 169 162 150 147 108 84 217 194 122 146 164 160 174 161 162 181 178 122 129 95 171 176 178 186 178 177 195 171 155 173 163 199 250 93 186 196 159 149 195 202 291 184 163 153 177 140 99 84 82 83 90 110 121 60 333 262 189 166 221 272 281 296 263 253 262 266 272 270 271 278 284 289 292 288 273
225 224 221 219 221 223 228 232 231 232 228 221 180 165 154 147 138 99 131 225 185 107 127 154 169 166 148 147 195 234 110 72 95 140 156 168 179 165 116 156 143 122 114 349 198 230 338 74 175 163 169 169 131 65 45 114 134 138 120 78 62 42 45 59 53 83 72 289 249 191 189 183 272 275 246 229 226 211 234 266 272 274 277 279 290 299 280 256
225 224 218 217 220 220 225 227 226 227 221 212 181 163 153 138 100 152 197 216 47 139 126 150 177 148 149 146 175 185 94 36 133 141 144 151 163 143 114 134 108 80 6 317 290 297 340 92 231 195 157 126 105 68 38 70 120 122 95 89 79 354 11 32 349 52 116 251 249 218 207 157 237 257 243 246 252 218 212 246 263 274 275 275 282 283 266 261
225 220 216 220 223 222 225 227 228 224 217 207 184 168 155 129 147 205 199 95 68 198 151 172 189 152 159 148 160 175 130 106 170 158 149 145 161 175 171 178 163 101 289 240 246 339 262 232 258 146 164 154 120 77 44 26 64 98 98 111 100 336 355 348 295 132 221 245 224 195 208 200 241 260 270 265 263 249 227 234 248 259 269 274 278 276 273 273
224 220 216 214 221 225 225 229 231 226 222 206 182 163 119 162 193 211 203 156 187 219 110 106 107 130 153 152 180 177 128 173 185 168 151 141 170 211 246 223 177 147 204 193 177 128 268 294 269 136 206 193 166 140 149 215 190 159 147 141 138 138 176 250 257 262 267 262 212 161 160 258 266 272 254 248 253 253 244 246 253 258 264 269 273 275 277 277
223 223 216 208 215 222 224 228 225 230 227 192 164 138 95 204 200 201 202 203 338 35 49 78 89 98 150 165 221 176 142 221 177 143 122 132 160 216 244 239 209 134 103 148 162 178 216 283 209 177 190 184 185 187 162 142 157 184 162 139 158 165 176 213 216 210 252 281 274 202 179 198 211 258 246 241 258 264 259 255 256 260 262 265 270 272 273 274
225 225 220 212 208 207 218 225 221 230 213 171 144 129 181 200 232 193 202 207 141 92 31 55 95 113 190 270 305 195 170 220 165 128 152 165 182 204 201 211 202 164 135 177 214 167 200 261 240 237 161 167 180 191 131 112 136 212 115 118 195 193 154 156 195 179 186 316 304 225 222 212 206 275 272 254 267 271 264 261 260 260 260 263 266 267 269 277
229 226 225 221 209 201 204 211 221 229 198 160 133 201 195 203 213 176 195 179 148 132 105 70 80 123 200 246 276 232 214 101 147 138 195 204 228 212 205 219 199 183 179 184 193 147 171 267 286 355 77 171 181 179 139 142 179 163 139 179 212 170 117 115 229 91 85 261 277 227 248 276 311 287 268 253 265 273 272 270 261 257 259 262 260 259 267 281
230 224 229 228 216 206 198 201 220 218 188 160 151 203 190 248 219 170 181 153 148 142 132 150 174 155 186 199 204 212 204 83 149 168 202 204 258 214 208 246 203 194 203 196 206 202 163 254 297 50 159 242 257 106 88 61 123 130 187 202 168 108 97 111 203 351 44 244 270 266 250 274 296 276 277 263 259 265 267 262 257 260 263 259 255 258 268 278
231 226 233 231 222 209 196 199 213 201 182 167 201 200 176 227 208 179 169 146 139 142 147 196 199 163 180 193 200 189 179 178 170 184 192 186 247 208 183 216 209 203 211 203 219 253 159 233 297 26 185 266 17 114 98 10 76 130 191 180 120 154 194 114 167 199 221 242 272 290 282 263 219 235 256 217 228 241 247 251 259 264 258 253 255 260 266 269
233 230 246 239 225 210 197 198 202 190 178 177 214 205 198 206 206 189 177 162 144 165 176 206 198 172 170 174 168 162 183 190 170 178 186 182 234 208 179 199 214 206 204 191 193 257 140 198 272 320 254 286 41 156 190 202 44 59 86 123 105 163 180 171 158 173 196 217 251 301 314 270 216 203 198 205 216 221 229 245 254 249 249 251 253 254 253 239
223 220 258 236 212 203 192 193 195 184 172 221 209 197 183 190 207 206 198 189 69 161 192 196 185 199 188 168 157 166 192 197 174 187 209 188 218 240 194 193 177 176 188 182 192 225 106 202 238 320 330 194 176 212 197 179 164 149 162 176 191 157 124 186 182 129 147 170 204 260 286 268 239 184 187 208 219 212 210 222 235 243 245 241 234 228 219 196
194 209 250 197 183 185 181 183 189 183 184 220 213 221 176 157 170 201 207 212 227 272 164 173 185 191 169 168 186 177 178 187 182 196 229 206 215 245 210 195 171 129 138 167 198 202 171 192 184 159 232 203 215 245 207 187 181 179 186 194 196 180 152 189 232 222 120 151 182 173 259 271 254 178 193 208 215 214 215 220 229 242 235 214 210 211 194 174
188 214 222 176 181 179 174 177 185 183 201 215 219 220 164 132 139 175 191 204 218 236 205 187 196 191 188 202 208 173 160 183 191 194 228 228 218 221 213 198 177 153 140 159 207 192 165 130 147 192 213 214 238 305 206 211 199 191 203 199 194 190 180 184 207 215 157 183 176 115 254 270 259 178 205 220 222 227 230 228 229 237 228 201 202 206 182 161
204 212 171 161 189 183 173 181 208 186 217 228 225 219 161 154 154 159 172 187 199 209 208 209 184 192 212 215 197 182 176 193 191 197 231 251 231 228 213 179 167 156 148 160 229 168 144 128 194 231 267 288 311 350 31 52 126 212 239 174 157 200 190 164 179 188 167 190 181 114 247 261 270 209 244 258 257 250 240 230 229 233 226 208 209 207 179 163
218 222 203 186 195 188 179 188 202 195 224 226 221 215 205 208 180 165 174 182 186 182 187 209 189 196 211 194 189 202 191 196 211 211 223 249 248 230 205 181 172 171 183 196 176 169 167 188 202 213 276 301 312 312 290 343 123 218 233 186 188 197 160 113 138 167 189 215 197 188 243 254 283 346 289 271 273 269 252 239 240 235 221 217 221 210 187 178
205 233 229 217 209 204 204 233 210 204 219 218 218 208 212 223 196 192 193 186 189 181 172 208 202 192 192 174 197 214 192 197 223 221 223 245 267 227 199 191 181 187 207 207 170 169 172 195 187 191 226 232 235 239 219 200 165 209 236 207 201 192 170 174 207 176 221 229 202 196 243 254 292 358 283 265 292 289 267 248 242 231 221 226 227 209 199 197
176 209 223 219 226 234 248 255 250 251 218 216 222 210 211 229 211 199 197 191 194 191 190 205 191 183 189 187 201 220 211 211 217 212 213 226 237 251 199 195 190 199 211 199 164 160 150 261 203 198 216 221 235 243 186 130 145 196 223 209 198 198 188 190 211 205 221 234 226 223 237 251 265 258 240 252 248 256 261 247 233 226 222 230 233 219 211 218
190 205 186 191 227 241 247 245 230 226 235 211 201 202 213 223 232 201 196 197 197 197 206 221 183 179 192 196 207 222 216 214 218 221 223 217 228 297 197 194 200 211 211 190 170 157 104 258 223 221 228 230 246 248 191 143 178 202 210 204 197 199 191 191 215 223 221 228 241 236 230 245 258 244 217 233 234 231 247 247 236 226 218 228 241 236 228 237
204 224 199 182 185 229 233 229 210 217 250 248 212 216 215 216 222 211 200 200 197 193 201 227 202 200 201 197 207 223 215 214 221 225 229 226 228 303 170 207 217 215 200 177 185 169 138 231 228 232 238 240 255 256 204 173 208 207 204 207 200 193 191 199 217 225 223 220 240 246 235 235 250 248 226 220 223 223 233 238 235 229 226 239 251 247 246 255
209 226 206 199 207 203 177 163 167 202 233 240 232 237 224 219 221 213 194 192 203 197 198 213 215 212 212 206 207 216 213 212 221 224 226 224 211 184 210 239 233 213 182 171 203 183 158 226 227 223 237 244 253 256 224 192 223 237 215 212 205 197 197 206 216 224 226 225 237 250 249 245 249 249 231 223 228 232 239 243 238 231 235 247 257 261 265 264
210 213 198 190 224 245 194 118 122 174 223 222 224 230 223 229 235 227 198 191 202 193 195 214 225 216 210 212 215 222 221 213 222 226 214 214 214 194 209 222 196 193 167 159 238 184 173 226 223 202 230 248 248 252 240 199 206 236 233 217 215 214 211 214 219 222 226 231 237 244 253 257 255 240 212 223 227 229 237 243 240 237 240 248 259 264 265 262
213 212 203 180 202 234 232 217 154 158 220 200 208 226 224 229 237 245 235 217 217 210 195 212 226 223 214 216 216 224 227 221 226 229 212 209 220 210 203 205 190 176 163 173 179 145 164 227 218 166 220 243 240 245 243 219 211 244 249 234 223 221 219 219 220 220 219 224 233 240 248 256 253 200 193 222 217 214 224 227 232 238 240 245 252 255 256 257
214 209 205 198 208 218 212 220 188 197 231 216 206 225 235 240 237 233 257 240 227 228 225 218 221 223 220 222 221 226 229 228 232 237 232 231 234 228 219 216 205 188 170 173 179 167 165 183 209 192 214 242 244 242 233 218 225 242 241 236 231 226 223 225 230 230 224 216 222 228 233 246 246 183 206 234 210 203 221 220 225 234 237 241 247 249 253 256